When you browse on this site, cookies collect data to enhance your experience and personalize the content and advertising you see.
Visit our Privacy Policy to learn more. By continuing to use the site, you agree to this use of cookies and data.
  • En España
  • Lista de países
  • Para 7 días
  • Temperatura del agua
  • El tiempo en el mapa
  • Informadores
  • user-avatar
    Iniciar sesión

    Tiempo cada hora Yurovka

    Hoy, 18 Agosto, Domingo

    Tiempo Temperatura Precipitaciones Viento Presión Humedad
    00:00 +17°C° 0 mm 2 mps 732 mmHg 97%
    01:00 +16°C° 0 mm 2 mps 732 mmHg 97%
    02:00 +16°C° 0 mm 2 mps 732 mmHg 97%
    03:00 +16°C° 0 mm 1 mps 733 mmHg 97%
    04:00 +16°C° 0 mm 1 mps 733 mmHg 97%
    05:00 +16°C° 0 mm 1 mps 733 mmHg 97%
    06:00 +18°C° 0 mm 1 mps 733 mmHg 93%
    07:00 +19°C° 0 mm 1 mps 733 mmHg 90%
    08:00 +20°C° 0 mm 1 mps 734 mmHg 86%
    09:00 +21°C° 0.1 mm 1 mps 734 mmHg 82%
    10:00 +22°C° 0.1 mm 1 mps 734 mmHg 77%
    11:00 +23°C° 0.1 mm 2 mps 734 mmHg 73%
    12:00 +23°C° 0.3 mm 2 mps 734 mmHg 71%
    13:00 +24°C° 0.3 mm 2 mps 735 mmHg 70%
    14:00 +24°C° 0.3 mm 2 mps 735 mmHg 68%
    15:00 +22°C° 1 mm 3 mps 735 mmHg 73%
    16:00 +21°C° 1 mm 3 mps 735 mmHg 77%
    17:00 +21°C° 1 mm 4 mps 735 mmHg 82%
    18:00 +19°C° 0.2 mm 3 mps 736 mmHg 86%
    19:00 +18°C° 0.2 mm 3 mps 736 mmHg 90%
    20:00 +17°C° 0.2 mm 3 mps 736 mmHg 95%
    21:00 +16°C° 0 mm 3 mps 737 mmHg 95%
    22:00 +15°C° 0 mm 2 mps 737 mmHg 95%
    23:00 +15°C° 0 mm 2 mps 737 mmHg 95%

    Mañana, 19 Agosto, Lunes

    Tiempo Temperatura Precipitaciones Viento Presión Humedad
    00:00 +14°C° 0 mm 2 mps 737 mmHg 96%
    01:00 +14°C° 0 mm 2 mps 738 mmHg 97%
    02:00 +14°C° 0 mm 2 mps 738 mmHg 97%
    03:00 +14°C° 0 mm 2 mps 738 mmHg 97%
    04:00 +14°C° 0 mm 2 mps 739 mmHg 97%
    05:00 +14°C° 0 mm 2 mps 739 mmHg 97%
    06:00 +14°C° 0 mm 3 mps 739 mmHg 95%
    07:00 +14°C° 0 mm 3 mps 740 mmHg 92%
    08:00 +16°C° 0 mm 3 mps 740 mmHg 89%
    09:00 +18°C° 0 mm 3 mps 740 mmHg 83%
    10:00 +19°C° 0 mm 3 mps 741 mmHg 77%
    11:00 +21°C° 0 mm 3 mps 741 mmHg 71%
    12:00 +22°C° 0 mm 3 mps 741 mmHg 67%
    13:00 +24°C° 0 mm 3 mps 741 mmHg 64%
    14:00 +25°C° 0 mm 2 mps 741 mmHg 60%
    15:00 +24°C° 0 mm 2 mps 742 mmHg 63%
    16:00 +24°C° 0 mm 2 mps 742 mmHg 66%
    17:00 +24°C° 0 mm 1 mps 742 mmHg 69%
    18:00 +23°C° 0 mm 1 mps 742 mmHg 73%
    19:00 +21°C° 0 mm 1 mps 742 mmHg 77%
    20:00 +19°C° 0 mm 1 mps 742 mmHg 81%
    21:00 +19°C° 0 mm 1 mps 742 mmHg 82%
    22:00 +19°C° 0 mm 1 mps 742 mmHg 84%
    23:00 +18°C° 0 mm 1 mps 743 mmHg 85%

    Pasado mañana, 20 Agosto, Martes

    Tiempo Temperatura Precipitaciones Viento Presión Humedad
    00:00 +18°C° 0 mm 1 mps 743 mmHg 87%
    01:00 +16°C° 0 mm 1 mps 743 mmHg 88%
    02:00 +16°C° 0 mm 1 mps 743 mmHg 89%
    03:00 +16°C° 0 mm 1 mps 743 mmHg 89%
    04:00 +16°C° 0 mm 1 mps 743 mmHg 89%
    05:00 +16°C° 0 mm 1 mps 744 mmHg 89%
    06:00 +19°C° 0 mm 1 mps 744 mmHg 84%
    07:00 +20°C° 0 mm 1 mps 744 mmHg 78%
    08:00 +22°C° 0 mm 1 mps 744 mmHg 73%
    09:00 +23°C° 0 mm 2 mps 744 mmHg 68%
    10:00 +24°C° 0 mm 2 mps 744 mmHg 63%
    11:00 +26°C° 0 mm 2 mps 744 mmHg 57%
    12:00 +26°C° 0 mm 2 mps 744 mmHg 56%
    13:00 +27°C° 0 mm 2 mps 744 mmHg 54%
    14:00 +27°C° 0 mm 2 mps 744 mmHg 53%
    15:00 +27°C° 0 mm 2 mps 744 mmHg 57%
    16:00 +27°C° 0 mm 1 mps 744 mmHg 62%
    17:00 +26°C° 0 mm 1 mps 744 mmHg 66%
    18:00 +25°C° 0 mm 1 mps 744 mmHg 70%
    19:00 +23°C° 0 mm 1 mps 744 mmHg 74%
    20:00 +20°C° 0 mm 0 mps 744 mmHg 77%
    21:00 +21°C° 0 mm 1 mps 744 mmHg 78%
    22:00 +21°C° 0 mm 1 mps 744 mmHg 79%
    23:00 +21°C° 0 mm 1 mps 744 mmHg 80%

    21 Agosto, Miércoles

    Tiempo Temperatura Precipitaciones Viento Presión Humedad
    00:00 +20°C° 0 mm 1 mps 744 mmHg 82%
    01:00 +20°C° 0 mm 1 mps 744 mmHg 83%
    02:00 +20°C° 0 mm 1 mps 744 mmHg 85%
    03:00 +20°C° 0 mm 1 mps 744 mmHg 85%
    04:00 +20°C° 0 mm 1 mps 744 mmHg 86%
    05:00 +19°C° 0 mm 1 mps 744 mmHg 87%
    06:00 +21°C° 0 mm 1 mps 745 mmHg 82%
    07:00 +23°C° 0 mm 1 mps 745 mmHg 77%
    08:00 +22°C° 0 mm 0 mps 745 mmHg 72%
    09:00 +24°C° 0 mm 0 mps 745 mmHg 68%
    10:00 +25°C° 0 mm 0 mps 745 mmHg 64%
    11:00 +26°C° 0 mm 0 mps 745 mmHg 60%
    12:00 +28°C° 0 mm 1 mps 745 mmHg 58%
    13:00 +29°C° 0 mm 1 mps 744 mmHg 56%
    14:00 +29°C° 0 mm 2 mps 744 mmHg 55%
    15:00 +29°C° 0 mm 2 mps 744 mmHg 58%
    16:00 +28°C° 0 mm 2 mps 743 mmHg 61%
    17:00 +28°C° 0 mm 2 mps 743 mmHg 65%
    18:00 +27°C° 0 mm 2 mps 743 mmHg 69%
    19:00 +25°C° 0 mm 2 mps 743 mmHg 72%
    20:00 +24°C° 0 mm 2 mps 743 mmHg 76%
    21:00 +23°C° 0 mm 2 mps 743 mmHg 77%
    22:00 +21°C° 0 mm 2 mps 743 mmHg 79%
    23:00 +21°C° 0 mm 2 mps 743 mmHg 80%

    22 Agosto, Jueves

    Tiempo Temperatura Precipitaciones Viento Presión Humedad
    00:00 +20°C° 0 mm 2 mps 742 mmHg 81%
    01:00 +20°C° 0 mm 2 mps 742 mmHg 82%
    02:00 +20°C° 0 mm 2 mps 742 mmHg 83%
    03:00 +19°C° 0 mm 2 mps 742 mmHg 83%
    04:00 +19°C° 0 mm 2 mps 742 mmHg 84%
    05:00 +19°C° 0 mm 2 mps 741 mmHg 85%
    06:00 +20°C° 0 mm 2 mps 741 mmHg 80%
    07:00 +23°C° 0 mm 2 mps 741 mmHg 74%
    08:00 +24°C° 0 mm 2 mps 741 mmHg 69%
    09:00 +25°C° 0 mm 2 mps 741 mmHg 65%
    10:00 +26°C° 0 mm 2 mps 741 mmHg 61%
    11:00 +27°C° 0 mm 2 mps 741 mmHg 56%
    12:00 +28°C° 0 mm 2 mps 741 mmHg 55%
    13:00 +28°C° 0 mm 2 mps 741 mmHg 54%
    14:00 +28°C° 0 mm 2 mps 741 mmHg 52%
    15:00 +28°C° 0 mm 2 mps 741 mmHg 59%
    16:00 +27°C° 0 mm 3 mps 741 mmHg 65%
    17:00 +26°C° 0 mm 3 mps 741 mmHg 71%
    18:00 +23°C° 0 mm 4 mps 741 mmHg 76%
    19:00 +21°C° 0 mm 4 mps 742 mmHg 82%
    20:00 +19°C° 0 mm 5 mps 742 mmHg 87%
    21:00 +19°C° 0 mm 4 mps 742 mmHg 86%
    22:00 +18°C° 0 mm 4 mps 742 mmHg 84%
    23:00 +18°C° 0 mm 4 mps 742 mmHg 82%

    23 Agosto, Viernes

    Tiempo Temperatura Precipitaciones Viento Presión Humedad
    00:00 +18°C° 0 mm 4 mps 742 mmHg 82%
    01:00 +18°C° 0 mm 4 mps 743 mmHg 81%
    02:00 +18°C° 0 mm 4 mps 743 mmHg 81%
    03:00 +17°C° 0.2 mm 4 mps 743 mmHg 82%
    04:00 +17°C° 0.2 mm 4 mps 743 mmHg 84%
    05:00 +15°C° 0.2 mm 4 mps 743 mmHg 85%
    06:00 +17°C° 0.2 mm 4 mps 743 mmHg 84%
    07:00 +17°C° 0.2 mm 4 mps 743 mmHg 83%
    08:00 +17°C° 0.2 mm 4 mps 743 mmHg 82%
    09:00 +17°C° 0.1 mm 4 mps 743 mmHg 79%
    10:00 +18°C° 0.1 mm 4 mps 743 mmHg 76%
    11:00 +19°C° 0.1 mm 4 mps 743 mmHg 72%
    12:00 +19°C° 0 mm 3 mps 743 mmHg 69%
    13:00 +20°C° 0 mm 3 mps 743 mmHg 66%
    14:00 +21°C° 0 mm 3 mps 743 mmHg 63%
    15:00 +21°C° 0 mm 3 mps 743 mmHg 65%
    16:00 +21°C° 0 mm 3 mps 743 mmHg 67%
    17:00 +20°C° 0 mm 2 mps 743 mmHg 68%
    18:00 +19°C° 0 mm 2 mps 743 mmHg 72%
    19:00 +18°C° 0 mm 2 mps 743 mmHg 75%
    20:00 +16°C° 0 mm 2 mps 743 mmHg 78%
    21:00 +16°C° 0 mm 2 mps 743 mmHg 79%
    22:00 +15°C° 0 mm 2 mps 743 mmHg 79%
    23:00 +14°C° 0 mm 3 mps 743 mmHg 79%
    Mostrar más